Regional Weather Roundup
Issued by NWS Green Bay, WI

Home | Current Version | Previous Version | Graphics & Text | Print | Product List | Glossary Off
Versions: 1 2 3 4 5 6 7 8 9 10 11 12 13 14 15 16 17 18 19 20 21 22 23 24 25 26 27 28 29 30 31 32 33 34 35 36 37 38 39 40 41 42 43 44 45 46 47 48 49 50

000
ASUS43 KGRB 250759
RWRGRB

NORTH-CENTRAL AND NORTHEAST WISCONSIN REGIONAL WEATHER ROUNDUP
NATIONAL WEATHER SERVICE GREEN BAY WI
200 AM CST THU DEC 25 2014

WIZ005-009-010>012-018-019-250900-
NORTH CENTRAL WISCONSIN

CITY           SKY/WX    TMP DP  RH WIND       PRES   REMARKS
IRONWOOD       CLOUDY    32  30  93 W7        29.48R
MANITOWISH WTR NOT AVBL
ARBOR VITAE    NOT AVBL
EAGLE RIVER    NOT AVBL
LAND O LAKES   NOT AVBL
RHINELANDER    CLOUDY    30  27  88 W14       29.52R
PHILLIPS       CLOUDY    30  27  88 W7        29.53R
ANTIGO         NOT AVBL
TOMAHAWK       NOT AVBL
MERRILL        NOT AVBL
$$

WIZ013-073-250900-
NORTHEAST WISCONSIN

CITY           SKY/WX    TMP DP  RH WIND       PRES   REMARKS
IRON MOUNTAIN  CLOUDY    32  28  85 W7        29.49R
MARINETTE      MOCLDY    32  28  86 W5        29.53R
$$

WIZ017-030-035>037-045-250900-
CENTRAL WISCONSIN

CITY           SKY/WX    TMP DP  RH WIND       PRES   REMARKS
MEDFORD        NOT AVBL
WAUSAU         CLEAR     30  27  88 W8        29.56R
MOSINEE        NOT AVBL
MARSHFIELD     CLOUDY    33  28  81 SW9       29.59R
WISC RAPIDS    CLOUDY    33  27  78 W6        29.62R
STEVENS POINT  NOT AVBL
WAUPACA        NOT AVBL
SHAWANO        NOT AVBL
CLINTONVILLE   PTCLDY    32  30  93 W6        29.59R
$$

WIZ038-039-048-051-250900-
FOX VALLEY

CITY           SKY/WX    TMP DP  RH WIND       PRES   REMARKS
NWS GREEN BAY  PTCLDY    34  30  85 W12       29.59R
APPLETON       NOT AVBL
OSHKOSH        CLOUDY    34  30  85 W8        29.62R
FOND DU LAC    CLOUDY    34  30  85 W8        29.63R
$$

WIZ022-050-052-250900-
EAST CENTRAL WISCONSIN

CITY           SKY/WX    TMP DP  RH WIND       PRES   REMARKS
STURGEON BAY   CLOUDY    34  28  80 W10       29.57R
MANITOWOC      NOT AVBL
SHEBOYGAN      CLOUDY    34  30  85 W14G21    29.61R
$$

LMZ563-521-522-541>543-250900-
LAKESHORE

STATION/POSITION TIME  TEMP    WIND        PRES    VSBY  WAVE
                       AIR SEA DIR/SP/G                  HT/PER
                 (UTC) (F)     (DEG/KT/KT) (MB)    (MI)  (FT/S)
SHEBOYGAN LKSHOR 0700   35 37  280/ 16/ 20 1001.9R
KEWAUNEE LKSHORE 0700   34     290/ 11/ 15 1000.2R
ALGOMA MARINA    0700          260/  9/ 14   N/A
NORTHPORT PIER   0700   34     280/  8/ 15  998.6R
SISTER BAY LKSHO 0700          300/ 17/ 19   N/A
CHAMBERS ISLAND  0700   34     220/  6/ 11 1000.0R
MENOMINEE LKSHOR 0700   34     250/  9/ 12 1000.7R
$$


USA.gov is the U.S. government's official web portal to all federal, state and local government web resources and services.